FW9692 Weather Reports


Display with metric or nautical units.
time (UTC)temp
F
wind
direction
speed
MPH
gust
MPH
rain 1hr
in
rain 24hr
in
rain mn
in
humidity
%
barometer
mb
20260509130046 64 171 10.0 12.0 0.00 0.00 0.00 41 1001.0
20260509124548 63 159 11.0 14.0 0.00 0.00 0.00 42 1001.0
20260509123006 62 173 9.0 13.0 0.00 0.00 0.00 43 1000.6
20260509121509 62 196 10.0 14.0 0.00 0.00 0.00 45 1000.3
20260509120002 62 165 10.0 11.0 0.00 0.00 0.00 45 1000.3
20260509114603 64 156 7.0 13.0 0.00 0.00 0.00 43 1000.3
20260509113058 65 146 9.0 13.0 0.00 0.00 0.00 42 1000.2
20260509111553 65 140 10.0 12.0 0.00 0.00 0.00 42 1000.1
20260509104518 64 116 6.0 9.0 0.00 0.00 0.00 44 1000.0
20260509103014 65 139 7.0 11.0 0.00 0.00 0.00 43 999.8
20260509101521 66 136 9.0 11.0 0.00 0.00 0.00 40 999.8
20260509094556 68 149 8.0 15.0 0.00 0.00 0.00 37 999.8
20260509093043 67 249 12.0 15.0 0.00 0.00 0.00 39 999.2
20260509091540 68 226 9.0 14.0 0.00 0.00 0.00 38 998.9
20260509084526 70 259 13.0 16.0 0.00 0.00 0.00 35 999.0
20260509083034 69 261 11.0 14.0 0.00 0.00 0.00 35 999.0
20260509081523 69 258 13.0 16.0 0.00 0.00 0.00 35 999.1
20260509074524 69 268 13.0 16.0 0.00 0.00 0.00 36 999.1
20260509073029 68 257 13.0 15.0 0.00 0.00 0.00 37 999.1
20260509071526 69 254 13.0 17.0 0.00 0.00 0.00 37 999.2
20260509064649 69 248 14.0 16.0 0.00 0.00 0.00 37 999.5
20260509063048 70 244 14.0 18.0 0.00 0.00 0.00 37 999.6
20260509061548 70 254 14.0 19.0 0.00 0.00 0.00 36 999.7
20260509054512 69 248 13.0 16.0 0.00 0.00 0.00 37 999.9
20260509053013 69 259 13.0 16.0 0.00 0.00 0.00 38 1000.1
20260509051510 70 248 12.0 15.0 0.00 0.00 0.00 38 1000.1
20260509044518 71 248 12.0 16.0 0.00 0.00 0.00 37 1000.4
20260509043015 71 236 12.0 15.0 0.00 0.00 0.00 37 1000.4
20260509041513 72 240 13.0 17.0 0.00 0.00 0.00 36 1000.4
20260509034530 73 244 14.0 19.0 0.00 0.00 0.00 34 1000.1
20260509033026 74 227 15.0 19.0 0.00 0.00 0.00 33 1000.0
20260509031537 75 228 15.0 22.0 0.00 0.00 0.00 33 999.8
20260509024519 76 228 17.0 21.0 0.00 0.00 0.00 30 999.7
20260509023021 77 225 16.0 22.0 0.00 0.00 0.00 29 999.7
20260509021520 78 223 17.0 24.0 0.00 0.00 0.00 26 999.6
20260509014530 79 194 17.0 23.0 0.00 0.00 0.00 25 999.0
20260509004517 82 178 17.0 23.0 0.00 0.00 0.00 28 998.4
20260509003012 84 165 11.0 17.0 0.00 0.00 0.00 18 998.3
20260509001512 84 147 11.0 18.0 0.00 0.00 0.00 17 998.3
20260509000109 84 153 11.0 15.0 0.00 0.00 0.00 18 998.3
20260508234516 84 146 11.0 15.0 0.00 0.00 0.00 19 998.4
20260508233016 84 196 4.0 9.0 0.00 0.00 0.00 18 998.4
20260508231514 84 115 4.0 11.0 0.00 0.00 0.00 18 998.4
20260508230114 84 178 2.0 16.0 0.00 0.00 0.00 18 998.3
20260508224642 84 98 11.0 17.0 0.00 0.00 0.00 18 998.3
20260508223059 84 124 5.0 10.0 0.00 0.00 0.00 17 998.3
20260508221557 84 339 9.0 14.0 0.00 0.00 0.00 17 998.3
20260508220057 84 15 9.0 16.0 0.00 0.00 0.00 17 998.6
20260508214510 84 330 4.0 10.0 0.00 0.00 0.00 18 998.7
20260508213018 83 44 3.0 10.0 0.00 0.00 0.00 21 998.8
20260508211503 82 123 11.0 15.0 0.00 0.00 0.00 22 998.8
20260508204553 81 28 9.0 17.0 0.00 0.00 0.00 29 999.0
20260508203100 80 51 11.0 16.0 0.00 0.00 0.00 33 999.3
20260508201552 79 17 10.0 15.0 0.00 0.00 0.00 38 999.6
20260508200044 78 90 11.0 18.0 0.00 0.00 0.00 39 999.8
20260508194600 77 40 8.0 16.0 0.00 0.00 0.00 47 1000.0
20260508193103 76 25 5.0 15.0 0.00 0.00 0.00 49 1000.3
20260508191553 75 15 7.0 12.0 0.00 0.00 0.00 51 1000.4
20260508190050 74 43 6.0 13.0 0.00 0.00 0.00 55 1000.8
20260508184546 73 51 5.0 11.0 0.00 0.00 0.00 57 1001.1
20260508183044 72 102 8.0 11.0 0.00 0.00 0.00 61 1001.3
20260508181536 71 128 1.0 11.0 0.00 0.00 0.00 64 1001.4
20260508180037 69 9 5.0 13.0 0.00 0.00 0.00 67 1001.8
20260508174533 68 115 5.0 11.0 0.00 0.00 0.00 69 1001.9
20260508173027 67 119 6.0 10.0 0.00 0.00 0.00 71 1002.1
20260508171529 66 96 3.0 12.0 0.00 0.00 0.00 73 1002.3
20260508170025 65 178 3.0 11.0 0.00 0.00 0.00 73 1002.6
20260508164527 65 104 2.0 13.0 0.00 0.00 0.00 74 1002.5
20260508163031 65 119 3.0 12.0 0.00 0.00 0.00 75 1002.7
20260508161522 63 51 3.0 6.0 0.00 0.00 0.00 78 1002.9
20260508160023 62 80 3.0 10.0 0.00 0.00 0.00 81 1003.2
20260508154508 61 49 5.0 9.0 0.00 0.00 0.00 82 1003.3
20260508153005 60 36 3.0 7.0 0.00 0.00 0.00 84 1003.3
20260508151504 59 51 2.0 5.0 0.00 0.00 0.00 85 1003.4
20260508150010 59 49 3.0 12.0 0.00 0.00 0.00 85 1003.5
20260508144508 58 16 1.0 8.0 0.00 0.00 0.00 86 1003.5
20260508143010 58 28 2.0 6.0 0.00 0.00 0.00 86 1003.5
20260508141508 58 55 4.0 10.0 0.00 0.00 0.00 86 1003.5
20260508140009 58 64 6.0 9.0 0.00 0.00 0.00 85 1003.5
20260508134559 58 59 3.0 6.0 0.00 0.00 0.00 85 1003.5
20260508133108 57 178 0.0 2.0 0.00 0.00 0.00 85 1003.5
20260508133003 57 119 0.0 2.0 0.00 0.00 0.00 85 1003.5
20260508131602 57 41 4.0 7.0 0.00 0.00 0.00 84 1003.4